Regional Weather Roundup
Issued by NWS

Home | Current Version | Previous Version | Graphics & Text | Print | Product List | Glossary On
Versions: 1 2 3 4 5 6 7 8 9 10 11 12 13 14 15 16 17 18 19 20 21 22 23 24 25 26 27 28 29 30 31 32 33 34 35 36 37 38 39 40 41 42 43 44 45 46 47 48 49 50
000
ASUS43 KBIS 250110
RWRND
NORTH DAKOTA REGIONAL WEATHER ROUNDUP
NATIONAL WEATHER SERVICE EASTERN NORTH DAKOTA/GRAND FORKS ND
800 PM CDT SAT JUN 24 2017

  NOTE: "FAIR" INDICATES FEW OR NO CLOUDS BELOW 12,000 FEET WITH NO
  SIGNIFICANT WEATHER AND/OR OBSTRUCTIONS TO VISIBILITY.

NDZ001>003-009>011-017-250200-
...NORTHWEST NORTH DAKOTA...

CITY           SKY/WX    TMP DP  RH WIND       PRES   REMARKS
WILLISTON      FAIR      69  33  26 N10       30.27F
MINOT          FAIR      61  37  41 NW17      30.24S
MINOT AFB      FAIR      61  36  39 NW17      30.22F
$$

NDZ018>021-031>035-040>046-250200-
...SOUTHWEST NORTH DAKOTA...

CITY           SKY/WX    TMP DP  RH WIND       PRES   REMARKS
BISMARCK       FAIR      62  38  40 N15G25    30.25R
DICKINSON      FAIR      61  29  29 N14       30.27S
GARRISON         N/A     58  38  47 N14       30.25R
HETTINGER      FAIR      64  30  27 N15G24    30.29R
$$

NDZ004>008-012>016-024-026-027-054-250200-
...NORTHEAST NORTH DAKOTA...

CITY           SKY/WX    TMP DP  RH WIND       PRES   REMARKS
GRAND FORKS    LGT RAIN  51  50  96 N14       30.14R FOG
GRAND FORKS AF CLOUDY    51  46  80 N17G24    30.15S
DEVILS LAKE    CLOUDY    56  43  61 N15       30.20R
$$

NDZ022-023-025-028>030-036>039-047>053-250200-
...SOUTHEAST NORTH DAKOTA...

CITY           SKY/WX    TMP DP  RH WIND       PRES   REMARKS
JAMESTOWN      CLOUDY    55  45  68 NW21G30   30.19R
FARGO          CLOUDY    56  47  71 N24G32    30.13R
WAHPETON       CLOUDY    55  46  71 NW9       30.13R
$$




USA.gov is the U.S. government's official web portal to all federal, state and local government web resources and services.